Flag for Singapore Weather past 2 weeks in Singapore, Singapore

Now
88 °F

Partly sunny.


Feels Like: 96 °F
Forecast: 80 / 89 °F
Wind: 9 mph from West

Location: Singapore / Paya Lebar

Current Time: Jul 12, 2014 at 2:14:01 PM

Latest Report: Jul 12, 2014 at 2:00 PM


Visibility: N/A

Pressure: 29.77 "Hg

Humidity: 62%

Dew point: 73 °F

Location of SingaporeLocation

Historic Weather in Singapore — Graph

°F

Singapore temperature yesterday

Maximum temperature yesterday: 90 °F (at 3:00 PM)
Minimum temperature yesterday: 79 °F (at 9:00 PM)
Average temperature yesterday: 84 °F

Past Weeks' High & Low Weather Summary

 TemperatureHumidityPressure
High91 °F (Jun 29, 5:00 PM)100% (Jul 9, 9:00 AM)29.92 "Hg (Jul 9, 9:00 AM)
Low75 °F (Jun 30, 6:00 AM)55% (Jun 28, 4:00 PM)29.68 "Hg (Jul 3, 6:00 PM)
Average84 °F78%29.79 "Hg
* Reported Jun 27 2:00 PM — Jul 12 1:00 PM, Singapore, Weather by CustomWeather, © 2014

Note: Actual official high and low records may vary slightly from our data, if they occured in-between our weather recording intervals... More about our weather records

Advertising

Singapore weather history for previous 24 hours

 ConditionsComfort  
Time TempWeatherWind HumidityBarometerVisibility
1:00 PM
Jul 12
84 °FPartly sunny.9 mph79%29.80 "HgN/A
12:00 PM84 °FPartly sunny.8 mph74%29.83 "HgN/A
11:00 AM82 °FPartly sunny.6 mph79%29.86 "HgN/A
10:00 AM81 °FPartly sunny.6 mph84%29.83 "HgN/A
9:00 AM79 °FPartly sunny.6 mph84%29.83 "HgN/A
8:00 AM79 °FPartly sunny.6 mph84%29.80 "HgN/A
7:00 AM79 °FThunderstorms. Passing clouds.9 mph89%29.80 "Hg4 mi
6:00 AM81 °FPassing clouds.3 mph89%29.80 "Hg5 mi
5:00 AM81 °FPassing clouds.3 mph84%29.80 "HgN/A
11:00 PM
Jul 11
81 °FPassing clouds.2 mph84%29.83 "HgN/A
10:00 PM79 °FLight rain. Passing clouds.2 mph89%29.83 "HgN/A
9:00 PM79 °FLight rain. Passing clouds.5 mph89%29.80 "HgN/A
8:00 PM81 °FThunderstorms. Overcast.7 mph94%29.80 "Hg4 mi
7:00 PM82 °FThunderstorms. Broken clouds.10 mph89%29.77 "Hg1 mi
6:00 PM88 °FThunderstorms. Broken clouds.9 mph70%29.74 "Hg4 mi
5:00 PM88 °FScattered showers. Partly sunny.9 mph70%29.71 "HgN/A
4:00 PM88 °FBroken clouds.8 mph70%29.71 "HgN/A
3:00 PM90 °FPartly sunny.6 mph63%29.74 "HgN/A
2:00 PM88 °FBroken clouds.3 mph75%29.77 "HgN/A
Weather by CustomWeather, © 2014

See weather overviewHow to use our weather pages